RH
42 50 49 49 44 44 46 39 37 32 31 40 33 35 38 52 57 63 68 91 89 81 81 70 68 66 64 56 48 47 49 48 50 54 57 58 57 59 55 51 51 49 44 37
41 50 46 50 49 44 40 36 36 33 31 36 39 35 26 34 56 59 63 73 80 84 80 72 68 69 68 62 53 47 47 50 50 55 56 58 60 60 57 60 56 51 48 35
50 45 42 44 40 36 37 38 40 40 33 37 34 29 29 30 39 53 58 69 77 77 59 72 70 71 70 66 58 50 49 50 51 55 63 63 62 67 64 63 57 44 46 36
43 41 46 43 43 41 36 40 41 37 35 32 33 29 28 22 32 42 57 60 75 81 55 52 71 73 70 68 64 56 54 51 45 45 58 59 53 57 58 62 60 46 52 36
41 47 50 43 48 43 42 43 42 42 38 38 32 38 24 31 26 30 47 54 50 63 66 55 62 77 74 71 70 62 58 57 51 45 54 58 56 57 63 64 64 61 59 40
44 42 49 45 45 44 42 40 39 44 43 53 39 41 28 26 26 21 25 41 51 59 70 72 66 80 84 80 76 68 61 60 57 45 54 59 60 65 65 65 63 63 60 52
38 36 41 47 42 40 39 42 49 52 60 45 45 49 31 25 27 27 24 30 33 37 53 66 64 82 76 83 81 74 65 62 58 57 55 56 62 60 63 65 64 64 64 64
49 52 36 45 46 49 47 44 52 53 46 36 38 40 28 27 28 34 38 38 46 42 40 56 68 67 73 80 82 75 68 65 56 55 54 52 54 61 63 64 64 63 63 65
39 37 33 47 47 45 44 48 43 45 43 47 30 28 21 22 26 29 32 37 40 48 55 56 43 67 76 78 80 77 72 66 63 65 64 58 54 65 67 70 70 68 68 65
35 43 36 38 47 47 45 37 46 47 53 49 31 33 34 25 24 30 35 36 40 56 62 69 64 57 65 75 75 78 74 74 71 70 66 65 56 58 66 64 69 69 68 68
36 40 33 37 39 35 43 45 42 43 42 43 38 30 26 35 28 32 32 39 46 57 61 63 71 78 74 76 77 80 77 77 72 71 68 64 63 64 66 70 71 67 69 68
34 38 45 24 35 42 42 38 36 43 39 41 42 40 19 22 27 32 30 33 45 64 70 72 72 80 80 77 76 76 76 76 80 74 66 65 63 66 70 71 70 66 65 60
35 34 36 18 37 38 42 41 39 39 42 45 45 33 21 24 26 23 25 28 40 59 71 72 73 74 76 77 75 74 72 76 76 69 68 68 69 70 68 66 61 55 50 47
37 40 34 19 14 26 28 30 42 42 49 38 36 33 25 21 21 20 20 20 28 49 68 72 73 70 73 74 73 73 76 78 73 71 70 70 67 61 57 53 48 42 39 32
42 43 44 43 33 36 36 36 35 43 43 43 34 32 26 23 21 22 21 23 29 45 62 72 74 70 75 78 79 80 80 76 73 71 68 62 54 49 46 43 39 32 27 22
46 42 43 47 31 35 44 36 34 37 37 38 38 39 26 24 22 26 25 27 33 42 55 66 72 70 71 72 76 77 76 73 68 63 56 50 46 43 40 35 28 24 21 22
45 44 46 32 39 39 34 27 30 36 36 35 40 31 29 28 29 30 30 30 32 39 50 60 70 70 71 70 70 68 66 63 58 54 49 45 41 38 35 33 32 31 32 29
37 46 44 43 39 40 21 33 30 32 31 33 33 32 31 32 32 33 32 33 32 35 44 54 62 71 74 73 69 66 61 56 52 48 43 40 36 35 34 32 34 35 36 37
43 42 44 47 40 29 26 37 43 43 30 30 35 33 34 36 40 30 34 37 37 42 45 49 61 70 73 69 64 60 56 53 49 44 40 37 34 33 34 35 36 34 28 28
62 47 49 57 67 39 19 40 39 38 34 31 35 32 34 38 34 29 31 42 46 52 56 59 66 71 67 64 60 56 53 49 44 40 38 35 34 32 34 29 27 26 30 37
72 69 68 59 59 44 34 39 44 42 28 35 35 33 36 36 27 33 41 45 53 56 62 65 68 66 64 60 56 53 49 45 42 38 38 37 30 26 26 27 28 31 37 42
37 60 68 60 64 63 32 47 45 23 32 31 35 36 40 35 34 36 38 48 54 59 64 67 63 62 60 55 52 50 46 43 44 36 32 30 30 28 27 28 33 41 45 53
36 29 24 44 34 31 37 33 35 36 33 34 38 37 37 38 40 38 42 44 52 57 64 64 60 57 52 50 49 45 50 44 37 32 36 33 31 31 29 35 48 55 56 54
41 32 39 35 28 27 27 28 33 33 36 34 34 35 40 43 40 42 43 48 52 55 58 58 55 51 48 46 46 46 47 40 36 40 42 38 39 33 42 52 55 53 54 54
46 42 45 42 36 33 32 29 27 27 30 38 38 40 41 41 43 43 45 53 54 53 55 53 51 49 46 44 43 47 43 37 39 43 44 47 41 52 56 56 55 55 57 56
48 50 57 58 40 42 40 33 31 34 34 32 35 36 41 46 44 42 47 50 53 52 52 50 50 48 45 44 47 46 41 37 38 45 51 48 59 57 58 58 62 52 56 68
Wind_Speed
5 6 6 5 4 2 3 2 3 4 4 2 6 9 3 7 12 10 15 8 6 10 10 16 18 19 18 20 21 20 21 20 19 17 15 12 12 10 9 8 11 11 11 12
1 11 9 5 4 3 3 3 4 0 5 3 1 7 10 8 11 17 15 8 9 8 10 16 20 22 22 22 23 24 23 23 21 18 15 11 14 10 9 10 10 10 10 12
4 6 8 4 4 4 5 6 6 4 7 1 5 11 10 6 8 13 15 15 14 15 16 12 20 25 24 25 27 27 26 25 23 20 16 13 14 12 11 11 10 12 12 13
2 5 6 5 3 7 2 4 5 5 6 3 3 4 5 12 10 11 18 20 20 19 21 12 18 24 27 29 28 26 25 28 27 26 20 18 17 14 13 14 11 14 12 14
5 7 6 4 4 6 4 6 3 3 3 4 3 5 3 3 10 13 16 15 18 13 11 12 15 27 29 27 30 27 26 25 27 28 23 18 15 12 11 12 13 11 11 12
3 2 2 4 5 3 6 5 3 1 2 3 2 4 4 4 8 7 12 17 18 17 15 16 23 22 19 22 24 30 29 27 27 31 27 22 19 16 14 15 14 13 12 12
5 1 1 2 5 2 4 4 2 2 2 3 2 4 8 12 6 6 4 3 5 5 16 23 21 19 24 27 28 29 30 31 32 31 30 26 20 18 18 20 18 18 14 13
6 3 2 2 2 3 4 4 3 4 3 5 3 6 2 1 4 5 6 3 6 5 9 11 14 22 20 27 33 35 37 33 39 38 36 31 24 18 16 18 17 15 15 14
5 4 2 1 2 3 2 1 3 5 2 4 5 6 10 2 1 3 5 7 6 5 4 8 14 22 23 28 33 34 38 36 42 32 28 30 26 21 18 18 16 15 15 16
1 6 1 2 2 2 2 1 3 1 4 5 5 6 8 4 4 8 7 7 8 6 7 5 4 14 21 23 24 23 26 26 28 30 27 25 27 24 21 22 18 17 16 18
2 2 1 3 2 3 2 2 2 3 3 6 8 5 3 6 2 5 7 3 6 8 8 5 2 5 11 15 18 20 23 26 25 25 25 28 27 25 23 20 19 19 19 19
2 2 5 5 1 1 3 4 4 3 4 3 4 12 13 10 3 3 7 6 4 4 7 7 4 6 10 13 17 19 21 24 27 30 30 29 28 26 21 20 20 21 20 17
3 2 5 5 3 3 5 4 5 3 2 12 10 10 2 1 6 9 13 8 5 5 4 4 4 5 7 12 14 17 20 22 29 33 32 29 27 25 21 22 22 20 20 18
4 3 9 9 15 4 11 11 8 8 8 15 18 26 26 21 20 17 14 15 11 7 7 5 5 5 9 12 15 18 20 28 33 32 31 30 27 23 22 23 21 20 19 18
4 6 7 14 18 14 18 21 16 17 20 12 23 20 27 19 18 21 18 14 11 10 9 8 7 6 10 14 16 17 22 29 32 31 29 27 23 22 23 22 21 20 18 16
3 5 2 10 12 13 13 20 16 17 19 20 23 24 24 21 11 8 11 11 11 10 11 10 10 8 11 15 16 20 24 28 30 26 23 24 24 23 23 23 21 19 17 14
6 5 3 10 5 12 13 17 8 5 8 8 9 9 6 8 10 11 9 7 9 9 10 12 12 12 14 15 18 21 21 21 22 23 24 24 24 23 22 21 19 17 14 12
9 5 4 8 8 6 3 4 6 12 12 15 15 14 12 12 11 10 8 9 11 10 10 12 13 16 15 15 16 19 21 22 23 24 25 24 23 22 21 19 17 14 12 10
13 10 5 5 9 12 14 4 6 7 8 12 18 13 10 5 5 4 5 6 8 7 8 12 17 18 19 20 21 22 22 23 23 24 24 23 23 23 20 18 15 13 11 8
6 11 8 4 6 7 4 1 2 3 10 2 10 10 9 4 4 4 3 3 6 6 6 10 15 16 19 20 22 23 23 23 23 24 24 23 22 22 19 19 16 11 10 8
5 4 13 13 8 7 11 4 4 4 3 5 8 11 9 6 6 0 2 4 4 5 7 11 17 18 20 21 22 22 22 23 23 24 24 23 23 23 20 17 14 12 9 7
11 7 6 6 6 10 10 5 7 6 2 6 11 15 10 11 9 6 7 6 5 6 9 13 16 17 19 22 25 24 24 23 28 30 28 25 21 19 18 15 12 10 8 6
7 11 11 10 9 4 10 6 11 4 5 3 5 11 12 13 11 10 10 9 7 9 10 13 16 18 19 24 25 26 23 30 32 31 25 23 20 18 14 13 11 8 7 5
15 14 11 17 17 19 17 14 13 12 12 13 13 14 7 12 13 11 10 8 7 11 13 16 18 19 21 23 23 23 28 32 31 25 22 21 19 15 13 10 8 7 5 4
11 12 15 20 20 21 19 18 17 14 12 13 13 13 13 14 15 14 11 8 8 13 15 19 21 21 23 24 23 25 32 33 27 23 21 17 14 13 11 8 7 6 6 5
13 22 15 19 21 19 20 18 16 17 19 19 15 16 13 13 14 14 12 10 12 14 17 18 19 21 24 25 26 28 33 33 30 23 17 15 13 12 9 8 6 6 4 3
Wind_Direction
15 37 30 7 11 360 321 295 13 58 12 264 232 254 253 210 194 189 183 160 230 226 215 212 206 201 194 194 185 186 183 182 177 175 170 173 175 173 170 167 162 160 161 156
29 30 355 304 293 311 5 5 19 61 10 276 240 251 251 216 215 200 188 177 227 282 210 207 203 201 195 196 192 189 190 186 184 182 180 176 173 177 179 172 166 163 167 162
15 5 331 316 359 357 46 23 12 336 323 242 295 254 241 221 214 207 201 188 215 226 252 217 212 202 197 198 199 195 189 190 189 186 182 173 170 171 174 174 174 171 174 165
339 340 346 344 17 338 33 5 317 315 325 308 340 282 229 220 216 210 197 197 199 214 244 222 219 210 203 204 198 198 195 192 193 193 189 188 187 182 192 181 178 174 179 164
21 345 359 20 357 332 355 333 331 318 321 303 201 273 240 200 234 217 215 215 194 201 237 257 236 229 205 199 195 194 195 195 193 193 194 190 191 193 177 172 171 172 171 166
305 314 299 332 309 290 309 279 276 282 282 271 3 274 267 236 247 249 215 213 213 202 198 237 233 211 207 206 198 193 194 196 194 193 193 192 190 183 171 175 176 178 167 165
332 354 304 303 309 189 331 321 299 250 209 270 74 271 270 276 274 280 290 174 236 191 206 210 216 195 205 199 198 191 189 193 195 195 193 191 194 193 187 183 180 177 168 174
341 325 10 19 1 317 352 327 320 309 304 315 150 242 231 160 313 288 291 262 240 244 201 219 220 216 204 197 195 194 191 194 200 199 195 189 185 191 189 186 186 178 178 172
339 298 333 309 334 308 41 325 356 291 235 268 247 255 272 153 112 21 319 310 291 297 246 212 226 220 209 208 207 204 190 197 196 196 187 183 185 183 187 185 182 176 174 171
87 292 159 326 228 108 295 46 269 217 294 294 278 278 250 292 353 1 11 323 308 305 304 304 260 225 219 218 214 206 194 192 188 177 180 176 178 187 187 184 171 172 167 172
180 257 268 267 217 317 188 197 194 289 262 288 300 283 223 223 268 335 344 329 288 310 305 302 264 250 224 212 203 194 179 171 180 174 171 172 172 177 178 169 163 166 169 170
175 283 275 307 79 2 298 279 239 250 255 244 296 279 271 258 248 315 309 307 229 252 296 308 292 192 191 196 188 181 175 175 168 171 169 168 166 167 162 155 157 161 161 161
172 230 298 291 155 152 243 209 231 274 316 257 266 261 89 268 273 269 298 312 270 241 239 256 229 222 186 172 175 172 167 163 160 165 164 160 160 158 151 151 155 155 155 156
181 234 241 267 290 316 274 260 228 235 266 267 252 274 269 278 282 292 299 295 278 238 218 211 227 184 170 169 164 162 159 154 157 157 156 152 154 151 149 151 151 151 153 152
221 253 238 251 268 275 267 274 266 235 244 252 274 268 281 284 289 292 295 293 278 253 223 204 206 186 163 154 150 144 140 148 153 153 150 150 148 147 146 146 148 150 150 152
200 262 260 290 278 274 269 275 260 248 255 257 264 274 279 283 286 280 286 284 267 255 234 211 195 192 176 161 152 144 147 152 157 151 148 148 146 144 145 147 149 150 150 153
205 236 239 267 329 310 277 258 218 205 220 226 241 254 320 290 279 288 296 285 275 257 229 212 203 192 186 177 166 160 158 155 155 151 149 148 147 145 146 147 147 149 152 156
228 215 232 278 288 245 312 300 262 261 253 219 251 264 276 275 288 285 264 262 276 268 243 220 200 189 184 176 169 159 158 158 155 151 149 149 148 146 146 147 149 152 154 161
227 219 241 252 239 296 292 216 188 198 287 246 231 249 259 258 290 264 233 237 261 274 271 225 200 186 175 173 169 163 160 158 156 154 153 153 152 149 150 151 153 159 163 170
193 229 227 200 248 274 340 87 169 160 287 249 196 215 217 181 305 311 199 251 275 265 227 200 190 180 176 173 169 164 162 160 157 155 157 156 155 154 155 157 158 170 174 178
163 190 220 234 265 272 267 194 146 241 287 165 206 234 196 215 256 202 176 235 258 255 220 192 180 180 178 170 168 166 163 164 158 155 154 156 158 157 158 157 171 170 172 177
212 196 198 212 246 273 212 116 211 254 309 297 208 217 219 238 267 253 249 240 226 221 197 189 182 178 174 173 169 164 165 159 157 157 154 154 155 157 156 162 165 168 175 181
254 228 258 209 241 289 199 236 229 267 284 264 221 228 233 255 257 252 251 248 225 213 204 191 185 172 173 173 171 161 156 157 156 155 151 153 155 157 158 166 168 170 182 188
267 261 258 272 259 260 261 258 264 268 265 270 262 265 238 252 262 267 256 233 214 202 195 188 181 176 172 174 172 164 157 158 153 148 151 153 153 154 168 169 175 178 181 199
279 297 277 270 279 281 273 278 286 298 287 272 270 262 262 261 260 252 256 226 202 196 191 187 187 179 173 170 167 161 157 155 149 148 149 150 157 167 168 176 179 184 200 211
266 267 261 268 277 273 280 285 297 298 289 290 280 275 254 247 251 258 246 231 194 194 183 181 181 171 165 161 154 154 156 159 152 142 145 155 164 171 175 175 184 203 208 238